Weather in Phitsanulok

Thailand     16°49′57″N   100°15′54″E
temp.,
°C
wind,
m/s
gust,
m/s
humid.,
%
clouds,
%
prec.,
mm/h
press.,
hPa
HPBL,
m
9 may, sun
sun901:00+26s267778 2.1 1009254
04:00+26ese1278100 0.4 1008216
07:00+26nne2379100 0.4 1009204
10:00+30ne216357 0.0 1010538
13:00+35w11448 0.0 10071602
16:00+36wsw123923 0.0 10042243
19:00+32ssw12525 0.4 100528
22:00+29ese226522 1.2 100729
10 may, mon
mon1001:00+28sse11675 1.2 100516
04:00+27sse227347 0.1 100647
07:00+28se34715 0.1 1007209
10:00+34s23505 0.0 10081271
13:00+37ssw343816 0.0 10052406
16:00+38ssw343474 0.0 10032350
19:00+34s364591 0.0 1004169
22:00+30se11603 1.0 100624
11 may, tue
tue1101:00+29sse23665 1.0 100577
04:00+28se257224 0.0 1005146
07:00+28sse35715 0.0 1007332
10:00+33sse33555 0.0 10081169
13:00+37ssw333944 0.0 10052457
16:00+38wsw233472 0.0 10032354
19:00+33w354667 0.2 1003126
22:00+31nnw225654 0.7 100533
12 may, wed
wed1201:00+29n22616 0.7 100520
04:00+29sse33661 0.0 100570
07:00+29sse35710 0.3 1007293
10:00+34s22490 0.0 10081292
13:00+38ssw23383 0.0 10042421
16:00+39wsw33305 0.0 10022802
19:00+34se594749 0.0 1002260
22:00+32s22541 0.0 100449
13 may, thu
thu1301:00+31se35585 0.0 1004150
04:00+29se37665 0.0 1004254
07:00+29sse35705 0.0 1006345
10:00+34sse22505 0.0 10071227
13:00+38sse233811 0.0 10042372
16:00+40ssw333152 0.0 10012883
19:00+35sse463923 0.0 1001150
22:00+33sse495238 0.0 1003404